UAL1871 KAUS-KIAH

Flight info

Callsign UAL1871
Flight time 0h 40m
Altitude 21000
Route CWK8 ILEXY GUSHR3
Aircraft A319/M-SDE3FGHIRWY/LB1

Departure

Time 2026-05-03 22:43
Airport Austin Bergstrom International Airport (KAUS)

Arrival

Time 2026-05-03 23:23
Airport George Bush Intercontinental Airport (KIAH)
Time Latitude Longitude Altitude Speed Heading
2026-05-03 22:27 30.20173 -97.66358 502 ft 0 kts
2026-05-03 22:32 30.20166 -97.66358 502 ft 1 kts
2026-05-03 22:32 30.20158 -97.66358 502 ft 1 kts
2026-05-03 22:33 30.20150 -97.66358 502 ft 1 kts
2026-05-03 22:33 30.20141 -97.66359 502 ft 2 kts
2026-05-03 22:33 30.20127 -97.66359 502 ft 3 kts
2026-05-03 22:33 30.20109 -97.66359 502 ft 3 kts
2026-05-03 22:34 30.20091 -97.66360 502 ft 3 kts
2026-05-03 22:34 30.20078 -97.66360 502 ft 0 kts
2026-05-03 22:36 30.20080 -97.66362 502 ft 1 kts 334°
2026-05-03 22:36 30.20080 -97.66380 503 ft 4 kts 243°
2026-05-03 22:37 30.20025 -97.66391 503 ft 17 kts 179°
2026-05-03 22:37 30.19936 -97.66385 502 ft 1 kts 153°
2026-05-03 22:37 30.19915 -97.66327 500 ft 16 kts 90°
2026-05-03 22:37 30.19915 -97.66119 487 ft 34 kts 91°
2026-05-03 22:38 30.19957 -97.65994 481 ft 6 kts
2026-05-03 22:38 30.20015 -97.65992 481 ft 12 kts 360°
2026-05-03 22:38 30.20129 -97.65995 480 ft 20 kts 359°
2026-05-03 22:38 30.20301 -97.66001 479 ft 27 kts
2026-05-03 22:39 30.20369 -97.65937 479 ft 15 kts 85°
2026-05-03 22:39 30.20371 -97.65903 481 ft 0 kts 88°
2026-05-03 22:41 30.20371 -97.65902 481 ft 1 kts 88°
2026-05-03 22:42 30.20368 -97.65832 476 ft 16 kts 109°
2026-05-03 22:42 30.20232 -97.65787 480 ft 41 kts 179°
2026-05-03 22:42 30.19651 -97.65766 492 ft 124 kts 179°
2026-05-03 22:42 30.18561 -97.65717 859 ft 174 kts 177°
2026-05-03 22:43 30.17228 -97.65700 1618 ft 212 kts 186°
2026-05-03 22:43 30.15718 -97.66134 2634 ft 238 kts 200°
2026-05-03 22:43 30.14225 -97.67123 3818 ft 259 kts 217°
2026-05-03 22:43 30.12721 -97.68473 4713 ft 292 kts 211°
2026-05-03 22:44 30.10599 -97.69383 4474 ft 355 kts 190°
2026-05-03 22:44 30.07982 -97.69305 4224 ft 403 kts 168°
2026-05-03 22:44 30.05308 -97.68081 4435 ft 431 kts 152°
2026-05-03 22:44 30.02970 -97.65994 4197 ft 402 kts 136°
2026-05-03 22:45 30.01121 -97.63789 3901 ft 382 kts 144°
2026-05-03 22:45 29.98897 -97.61903 4321 ft 410 kts 137°
2026-05-03 22:45 29.97428 -97.59143 4229 ft 387 kts 110°
2026-05-03 22:45 29.97358 -97.56361 4491 ft 315 kts 80°
2026-05-03 22:46 29.98218 -97.54286 4641 ft 265 kts 60°
2026-05-03 22:46 29.99443 -97.52692 4739 ft 285 kts 44°
2026-05-03 22:46 30.01248 -97.51387 4836 ft 325 kts 27°
2026-05-03 22:46 30.03428 -97.50224 4889 ft 374 kts 27°
2026-05-03 22:47 30.05841 -97.48748 5226 ft 403 kts 30°
2026-05-03 22:47 30.08203 -97.47006 6551 ft 396 kts 30°
2026-05-03 22:47 30.10795 -97.45897 7585 ft 399 kts 15°
2026-05-03 22:47 30.13457 -97.45078 8588 ft 401 kts 12°
2026-05-03 22:48 30.16072 -97.43936 9952 ft 395 kts 30°
2026-05-03 22:48 30.17972 -97.41729 11569 ft 382 kts 56°
2026-05-03 22:48 30.18872 -97.38972 13153 ft 371 kts 74°
2026-05-03 22:48 30.19936 -97.36218 13800 ft 384 kts 52°
2026-05-03 22:49 30.21899 -97.34151 14603 ft 381 kts 32°
2026-05-03 22:49 30.24149 -97.32503 15403 ft 384 kts 29°
2026-05-03 22:49 30.26408 -97.30841 16228 ft 387 kts 31°
2026-05-03 22:49 30.28581 -97.28922 16895 ft 396 kts 38°
2026-05-03 22:50 30.30563 -97.26666 17615 ft 402 kts 43°
2026-05-03 22:50 30.32467 -97.24273 18330 ft 407 kts 44°
2026-05-03 22:50 30.34279 -97.21716 18856 ft 418 kts 53°
2026-05-03 22:50 30.35424 -97.18577 19360 ft 432 kts 73°
2026-05-03 22:51 30.35705 -97.15087 19932 ft 441 kts 90°
2026-05-03 22:51 30.35537 -97.11510 20535 ft 445 kts 92°
2026-05-03 22:51 30.35609 -97.07962 20925 ft 449 kts 77°
2026-05-03 22:51 30.36579 -97.04479 21150 ft 451 kts 64°
2026-05-03 22:52 30.37807 -97.01194 21116 ft 440 kts 61°
2026-05-03 22:52 30.39121 -96.97986 21122 ft 441 kts 60°
2026-05-03 22:52 30.40384 -96.94812 21125 ft 438 kts 62°
2026-05-03 22:52 30.41593 -96.91576 21129 ft 439 kts 63°
2026-05-03 22:53 30.42833 -96.88284 21133 ft 437 kts 62°
2026-05-03 22:53 30.44069 -96.85118 21137 ft 437 kts 62°
2026-05-03 22:53 30.45283 -96.81994 20507 ft 420 kts 62°
2026-05-03 22:53 30.46472 -96.78884 19307 ft 424 kts 63°
2026-05-03 22:54 30.47648 -96.75781 18976 ft 401 kts 62°
2026-05-03 22:54 30.48726 -96.72961 18670 ft 380 kts 62°
2026-05-03 22:54 30.49798 -96.70188 17711 ft 379 kts 62°
2026-05-03 22:54 30.50873 -96.67396 16948 ft 373 kts 63°
2026-05-03 22:55 30.51914 -96.64656 16201 ft 366 kts 64°
2026-05-03 22:55 30.52931 -96.61986 15449 ft 361 kts 64°
2026-05-03 22:55 30.53945 -96.59338 14731 ft 356 kts 64°
2026-05-03 22:55 30.54932 -96.56752 14008 ft 351 kts 65°
2026-05-03 22:56 30.55925 -96.54147 13193 ft 347 kts 65°
2026-05-03 22:56 30.56883 -96.51629 12379 ft 344 kts 65°
2026-05-03 22:56 30.57837 -96.49119 11975 ft 331 kts 65°
2026-05-03 22:56 30.58790 -96.46618 11994 ft 343 kts 64°
2026-05-03 22:57 30.59724 -96.44161 11994 ft 334 kts 65°
2026-05-03 22:57 30.60353 -96.41530 11927 ft 340 kts 86°
2026-05-03 22:57 30.60138 -96.38811 11978 ft 344 kts 98°
2026-05-03 22:57 30.59768 -96.36077 11997 ft 339 kts 98°
2026-05-03 22:58 30.59416 -96.33339 12000 ft 342 kts 98°
2026-05-03 22:58 30.59083 -96.30605 12001 ft 344 kts 97°
2026-05-03 22:58 30.58743 -96.27869 12002 ft 342 kts 98°
2026-05-03 22:58 30.58395 -96.25138 11997 ft 342 kts 98°
2026-05-03 22:59 30.58048 -96.22391 11995 ft 343 kts 98°
2026-05-03 22:59 30.57706 -96.19665 11992 ft 342 kts 98°
2026-05-03 22:59 30.57362 -96.16941 11988 ft 342 kts 98°
2026-05-03 22:59 30.56978 -96.14216 11978 ft 343 kts 103°
2026-05-03 23:00 30.56267 -96.11601 11968 ft 341 kts 109°
2026-05-03 23:00 30.55479 -96.08954 11967 ft 343 kts 109°
2026-05-03 23:00 30.54736 -96.06374 11956 ft 340 kts 108°
2026-05-03 23:00 30.54002 -96.03772 11949 ft 339 kts 108°
2026-05-03 23:01 30.53257 -96.01169 11948 ft 343 kts 108°
2026-05-03 23:01 30.52502 -95.98562 11944 ft 342 kts 108°
2026-05-03 23:01 30.51749 -95.95950 11938 ft 340 kts 108°
2026-05-03 23:01 30.51000 -95.93343 11921 ft 331 kts 108°
2026-05-03 23:02 30.50297 -95.90919 11911 ft 305 kts 109°
2026-05-03 23:02 30.49355 -95.88829 11874 ft 283 kts 131°
2026-05-03 23:02 30.47880 -95.87440 11844 ft 270 kts 154°
2026-05-03 23:02 30.46121 -95.86800 11836 ft 261 kts 175°
2026-05-03 23:03 30.44308 -95.86597 11853 ft 263 kts 176°
2026-05-03 23:03 30.42509 -95.86388 11851 ft 259 kts 176°
2026-05-03 23:03 30.40708 -95.86180 11853 ft 258 kts 176°
2026-05-03 23:03 30.38907 -95.85983 11857 ft 262 kts 176°
2026-05-03 23:04 30.37105 -95.85783 11842 ft 261 kts 176°
2026-05-03 23:04 30.35296 -95.85577 11844 ft 258 kts 176°
2026-05-03 23:04 30.33495 -95.85373 11846 ft 261 kts 176°
2026-05-03 23:04 30.31722 -95.85175 11850 ft 261 kts 176°
2026-05-03 23:05 30.29920 -95.84972 11840 ft 253 kts 176°
2026-05-03 23:05 30.28235 -95.84780 11828 ft 233 kts 176°
2026-05-03 23:05 30.26707 -95.84392 11661 ft 225 kts 151°
2026-05-03 23:05 30.25672 -95.83073 11195 ft 227 kts 111°
2026-05-03 23:06 30.25625 -95.81277 10701 ft 226 kts 70°
2026-05-03 23:06 30.26237 -95.79642 10419 ft 218 kts 62°
2026-05-03 23:06 30.26883 -95.78062 10092 ft 218 kts 62°
2026-05-03 23:06 30.27525 -95.76470 9708 ft 216 kts 63°
2026-05-03 23:07 30.28177 -95.74908 9311 ft 215 kts 63°
2026-05-03 23:07 30.28841 -95.73369 8929 ft 213 kts 62°
2026-05-03 23:07 30.29504 -95.71868 8548 ft 211 kts 62°
2026-05-03 23:07 30.30180 -95.70358 8173 ft 210 kts 62°
2026-05-03 23:08 30.30854 -95.68886 7858 ft 204 kts 59°
2026-05-03 23:08 30.31909 -95.67816 7355 ft 208 kts 22°
2026-05-03 23:08 30.33410 -95.67716 6642 ft 222 kts 356°
2026-05-03 23:08 30.34785 -95.68184 6218 ft 215 kts 312°
2026-05-03 23:09 30.35150 -95.69803 5869 ft 203 kts 262°
2026-05-03 23:09 30.34575 -95.71276 5651 ft 204 kts 228°
2026-05-03 23:09 30.33605 -95.72368 5549 ft 187 kts 217°
2026-05-03 23:09 30.32593 -95.73320 5816 ft 190 kts 217°
2026-05-03 23:10 30.31573 -95.74318 5901 ft 197 kts 219°
2026-05-03 23:10 30.30894 -95.75010 5798 ft 190 kts 220°
2026-05-03 23:10 30.29595 -95.76336 5887 ft 192 kts 220°
2026-05-03 23:10 30.28913 -95.77033 5902 ft 193 kts 220°
2026-05-03 23:11 30.27908 -95.78067 5763 ft 191 kts 220°
2026-05-03 23:11 30.26927 -95.79078 5593 ft 188 kts 219°
2026-05-03 23:11 30.25802 -95.79786 5593 ft 188 kts 186°
2026-05-03 23:11 30.24575 -95.79394 5496 ft 183 kts 149°
2026-05-03 23:12 30.23613 -95.78415 5125 ft 187 kts 135°
2026-05-03 23:12 30.22720 -95.77333 4813 ft 184 kts 136°
2026-05-03 23:12 30.21796 -95.76303 4468 ft 184 kts 139°
2026-05-03 23:12 30.20835 -95.75328 4130 ft 184 kts 140°
2026-05-03 23:13 30.19868 -95.74355 3797 ft 183 kts 140°
2026-05-03 23:13 30.18915 -95.73386 3455 ft 183 kts 140°
2026-05-03 23:13 30.17967 -95.72421 3089 ft 182 kts 140°
2026-05-03 23:13 30.17018 -95.71466 2893 ft 172 kts 141°
2026-05-03 23:14 30.16088 -95.70526 2937 ft 183 kts 140°
2026-05-03 23:14 30.15135 -95.69559 2925 ft 185 kts 141°
2026-05-03 23:14 30.14188 -95.68602 2931 ft 183 kts 140°
2026-05-03 23:14 30.13229 -95.67630 2930 ft 181 kts 140°
2026-05-03 23:15 30.12255 -95.66642 2933 ft 185 kts 140°
2026-05-03 23:15 30.11286 -95.65664 2927 ft 185 kts 140°
2026-05-03 23:15 30.10322 -95.64693 2904 ft 184 kts 141°
2026-05-03 23:15 30.09355 -95.63718 2896 ft 184 kts 140°
2026-05-03 23:16 30.08381 -95.62737 2953 ft 184 kts 140°
2026-05-03 23:16 30.07420 -95.61768 2984 ft 184 kts 140°
2026-05-03 23:16 30.06451 -95.60794 3020 ft 184 kts 140°
2026-05-03 23:16 30.05495 -95.59833 3013 ft 184 kts 140°
2026-05-03 23:17 30.04546 -95.58885 2967 ft 181 kts 140°
2026-05-03 23:17 30.03594 -95.57919 2942 ft 180 kts 140°
2026-05-03 23:17 30.02654 -95.56968 2948 ft 180 kts 140°
2026-05-03 23:17 30.01764 -95.55935 2933 ft 182 kts 133°
2026-05-03 23:18 30.00993 -95.54782 2919 ft 177 kts 126°
2026-05-03 23:18 30.00371 -95.53666 2912 ft 167 kts 122°
2026-05-03 23:18 29.99835 -95.52516 2821 ft 154 kts 114°
2026-05-03 23:18 29.99661 -95.51289 2661 ft 159 kts 93°
2026-05-03 23:19 29.99670 -95.51017 2620 ft 156 kts 91°
2026-05-03 23:19 29.99691 -95.50636 2561 ft 154 kts 89°
2026-05-03 23:19 29.99857 -95.49403 2378 ft 157 kts 80°
2026-05-03 23:19 30.00053 -95.48204 2151 ft 158 kts 86°
2026-05-03 23:20 30.00078 -95.46926 1967 ft 152 kts 95°
2026-05-03 23:20 30.00174 -95.45699 1787 ft 153 kts 80°
2026-05-03 23:20 30.00415 -95.44519 1596 ft 145 kts 81°
2026-05-03 23:20 30.00589 -95.43453 1418 ft 136 kts 87°
2026-05-03 23:21 30.00641 -95.42401 1239 ft 124 kts 89°
2026-05-03 23:21 30.00728 -95.41392 1026 ft 130 kts 89°
2026-05-03 23:21 30.00771 -95.40401 800 ft 116 kts 93°
2026-05-03 23:21 30.00757 -95.39453 679 ft 121 kts 96°
2026-05-03 23:22 30.00719 -95.37571 384 ft 126 kts 95°
2026-05-03 23:22 30.00710 -95.36609 206 ft 117 kts 94°
2026-05-03 23:22 30.00728 -95.35659 97 ft 117 kts 93°
2026-05-03 23:23 30.00705 -95.34990 97 ft 43 kts 88°
2026-05-03 23:23 30.00708 -95.34900 96 ft 1 kts 87°
2026-05-03 23:23 30.00707 -95.34889 96 ft 3 kts 96°
2026-05-03 23:23 30.00715 -95.34747 97 ft 27 kts 92°
2026-05-03 23:24 30.00716 -95.34528 98 ft 29 kts 91°
2026-05-03 23:24 30.00715 -95.34269 97 ft 35 kts 92°
2026-05-03 23:24 30.00675 -95.33977 100 ft 32 kts 117°
2026-05-03 23:24 30.00574 -95.33768 101 ft 28 kts 118°
2026-05-03 23:25 30.00554 -95.33569 101 ft 25 kts 96°
2026-05-03 23:25 30.00550 -95.33375 102 ft 24 kts 92°
2026-05-03 23:25 30.00530 -95.33207 102 ft 19 kts 116°
2026-05-03 23:25 30.00469 -95.33066 103 ft 20 kts 116°
2026-05-03 23:26 30.00394 -95.32954 101 ft 18 kts 131°
2026-05-03 23:26 30.00291 -95.32816 103 ft 28 kts 128°
2026-05-03 23:26 30.00139 -95.32605 102 ft 40 kts 131°
2026-05-03 23:26 30.00020 -95.32532 103 ft 16 kts 185°
2026-05-03 23:27 29.99906 -95.32539 101 ft 15 kts 180°
2026-05-03 23:27 29.99839 -95.32539 103 ft 10 kts 179°
2026-05-03 23:27 29.99672 -95.32534 103 ft 34 kts 178°
2026-05-03 23:27 29.99384 -95.32533 102 ft 43 kts 180°
2026-05-03 23:28 29.99116 -95.32537 103 ft 18 kts 201°
2026-05-03 23:28 29.99091 -95.32606 103 ft 18 kts 270°
2026-05-03 23:28 29.99089 -95.32825 101 ft 37 kts 271°
2026-05-03 23:28 29.99071 -95.33142 100 ft 36 kts 244°
2026-05-03 23:29 29.98918 -95.33240 101 ft 21 kts 183°
2026-05-03 23:29 29.98833 -95.33242 101 ft 0 kts 181°
2026-05-03 23:29 29.98836 -95.33242 101 ft 0 kts 181°